GEO-KOMPSAT-2A 1 43823U 18100A 21060.98948014 -.00000352 00000-0 00000-0 0 9993 2 43823 0.0542 297.5726 0002101 5.5680 341.2821 1.00273922 8239 GSAT-11 1 43824U 18100B 21060.90686771 -.00000085 00000-0 00000-0 0 9998 2 43824 0.1079 269.2749 0005033 165.9351 125.1450 1.00271721 8120 ARIANE 5 R/B 1 43825U 18100C 21060.68550092 .00005606 00000-0 10123-2 0 9992 2 43825 3.6280 211.7421 7203410 164.7974 240.6478 2.38973091 19201 ARIANE 5 DEB [SYLDA] 1 43826U 18100D 21061.30096337 .00027349 00000-0 29812-2 0 9993 2 43826 3.6690 125.6273 6645665 329.9280 4.7717 3.13973471 22587